Location: Arborea
(39.7744°N, 8.5819°E)
Time: 03:58:13
(UTC+00:00)

USA 229 - Pass Details

Date: 31 May 2022
Orbit: 938 x 1274 km, 63.4° (Epoch: 24 May)

Event Time Altitude Azimuth Distance (km) Brightness Sun altitude
Rises 01:01:53 0° 310° (NW) 4,075 6.9 -24.2°
Reaches altitude 10° 01:05:31 10° 294° (WNW) 3,160 6.1 -23.9°
Enters shadow 01:09:21 18° 263° (W) 2,635 5.4 -23.6°
